Weather Roundup
Issued by NWS Springfield, MO

Home | Current Version | Previous Version | Text Only | Print | Product List | Glossary On
Versions: 1 2 3 4 5 6 7 8 9 10 11 12 13 14 15 16 17 18 19 20 21 22 23 24 25 26 27 28 29 30 31 32 33 34 35 36 37 38 39 40 41 42 43 44 45 46 47 48 49 50
000
NZUS99 KSGF 211957
HRRSGF

HOURLY WEATHER
NATIONAL WEATHER SERVICE SPRINGFIELD MO
300 PM CDT MON AUG 21 2017

......SGF CWA......

CITY           SKY/WX    TMP DP  RH WIND       PRES   REMARKS
SPRINGFIELD    SUNNY     88  74  63 S9        30.09F HX  96
JOPLIN         SUNNY     91  76  61 SW15      30.07F HX 103
WEST PLAINS    SUNNY     88  72  58 S8        30.13F HX  94
ROLLA          MOSUNNY   89  75  63 S6        30.09F HX  99
BRANSON        MOSUNNY   90  72  55 S5        30.12S HX  96

......SURROUNDING SGF CWA......

CITY           SKY/WX    TMP DP  RH WIND       PRES   REMARKS
CHANUTE        SUNNY     91  76  61 S15       30.03F HX 103
PARSONS        SUNNY     89  75  63 S12       30.05F HX  99
COFFEYVILLE    SUNNY     90  77  65 S16       30.03F HX 103
EMPORIA        CLOUDY    90  73  57 S20G25    29.99F HX  98
HARRISON AR    SUNNY     88  71  57 S8        30.12F HX  94

......KANSAS AND MISSOURI......

CITY           SKY/WX    TMP DP  RH WIND       PRES   REMARKS
KANSAS CTY INT TSTM      73  71  93 S9G20     30.02F
SEDALIA        SUNNY     87  79  76 SE5       30.05F HX 101
ST JOSEPH      MOSUNNY   81  75  82 SE8       29.97F
ST LOUIS       PTSUNNY   88  77  69 NE7       30.05F HX 100
WICHITA        PTSUNNY   92  71  50 S17       30.00S HX  98
TOPEKA         CLOUDY    85  80  85 SE7       29.97F HX  99
OLATHE         PTSUNNY   83  77  82 S13       30.01F HX  92

......TENNESSEE......

CITY           SKY/WX    TMP DP  RH WIND       PRES   REMARKS
MEMPHIS        NOT AVBL
NASHVILLE      MOSUNNY   93  69  45 VRB6      30.12F HX  98

......ARKANSAS.......

CITY           SKY/WX    TMP DP  RH WIND       PRES   REMARKS
FAYETTEVILLE   SUNNY     87  75  67 SW7       30.11F HX  96
FT SMITH       MOSUNNY   91  76  61 VRB6      30.07S HX 103
LITTLE ROCK    MOSUNNY   90  75  61 S12       30.09F HX 100

......OKLAHOMA.......

CITY           SKY/WX    TMP DP  RH WIND       PRES   REMARKS
TULSA          MOSUNNY   92  74  55 S15       30.03S HX 101
PONCA CITY     SUNNY     93  71  48 S9G18     30.01S HX 100
MCALESTER      MOSUNNY   91  76  61 VRB7      30.08S HX 103
OKLAHOMA CITY  MOSUNNY   90  70  51 S14G24    30.05F HX  95

......IOWA............

CITY           SKY/WX    TMP DP  RH WIND       PRES   REMARKS
DES MOINES     NOT AVBL
QUAD CITIES    PTSUNNY   79  69  71 SW7       29.99S

......ILLINOIS........

CITY           SKY/WX    TMP DP  RH WIND       PRES   REMARKS
QUINCY         LGT RAIN  77  72  84 SW7       30.07F
CHICAGO        CLOUDY    83  70  64 E10       29.97F




USA.gov is the U.S. government's official web portal to all federal, state and local government web resources and services.